Location: Reutlingen
(48.4911°N, 9.2587°E)
Time: 18:22:49
(UTC+02:00)

ISS - Pass Details

Date: 10 January 2018
Orbit: 401 x 409 km, 51.6° (Epoch: 22 August)

Event Time Altitude Azimuth Distance (km) Brightness Sun altitude
Exits shadow 05:05:27 15° 77° (ENE) 1,256 -0.6 -30.2°
Drops below altitude 10° 05:06:06 10° 81° (E) 1,511 -0.1 -30.1°
Enters shadow 06:02:20 -69° 285° (WNW) 12,326 3.7 -20.8°
Maximum altitude 06:39:40 78° 205° (SSW) 437 -3.8 -14.8°
